Time,TemperatureF,DewpointF,PressureIn,WindDirection,WindDirectionDegrees,WindSpeedMPH,WindSpeedGustMPH,Humidity,HourlyPrecipIn,Conditions,Clouds,dailyrainin,SoftwareType,DateUTC
2013-02-04 00:01:00,26.1,21.1,29.64,NW,315,0.2,0.2,81,0.00,,,0.00,Weather8,2013-02-04 05:01:00,
2013-02-04 00:02:00,26.1,21.1,29.64,NW,315,0.2,0.2,81,0.00,,,0.00,Weather8,2013-02-04 05:02:00,
2013-02-04 00:03:00,26.1,21.1,29.64,NW,315,0.2,0.2,81,0.00,,,0.00,Weather8,2013-02-04 05:03:00,
2013-02-04 00:08:00,26.1,21.1,29.64,NW,315,0.2,0.2,81,0.00,,,0.00,Weather8,2013-02-04 05:08:00,
2013-02-04 00:13:00,26.1,21.1,29.64,NW,315,0.2,0.2,81,0.00,,,0.00,Weather8,2013-02-04 05:13:00,
2013-02-04 00:18:00,26.1,21.1,29.64,NW,315,0.2,0.2,81,0.00,,,0.00,Weather8,2013-02-04 05:18:00,
2013-02-04 00:23:00,26.1,21.1,29.64,NW,315,0.2,0.2,81,0.00,,,0.00,Weather8,2013-02-04 05:23:00,
2013-02-04 00:28:00,26.1,21.1,29.64,NW,315,0.2,0.2,81,0.00,,,0.00,Weather8,2013-02-04 05:28:00,
2013-02-04 00:33:00,26.3,22.1,29.64,NNW,337,2.0,2.0,84,0.00,,,0.00,Weather8,2013-02-04 05:33:00,
2013-02-04 00:38:00,26.3,22.1,29.64,NNW,337,2.0,2.0,84,0.00,,,0.00,Weather8,2013-02-04 05:38:00,
2013-02-04 00:43:00,26.3,22.1,29.64,NNW,337,2.0,2.0,84,0.00,,,0.00,Weather8,2013-02-04 05:43:00,
2013-02-04 00:48:00,26.3,22.1,29.64,NNW,337,2.0,2.0,84,0.00,,,0.00,Weather8,2013-02-04 05:48:00,
2013-02-04 00:53:00,26.3,22.1,29.64,NNW,337,2.0,2.0,84,0.00,,,0.00,Weather8,2013-02-04 05:53:00,
2013-02-04 00:58:00,26.3,22.1,29.64,NNW,337,2.0,2.0,84,0.00,,,0.00,Weather8,2013-02-04 05:58:00,
2013-02-04 01:03:00,26.3,22.1,29.64,WNW,292,0.9,2.0,84,0.00,,,0.00,Weather8,2013-02-04 06:03:00,
2013-02-04 01:08:00,26.3,22.1,29.64,WNW,292,0.9,2.0,84,0.00,,,0.00,Weather8,2013-02-04 06:08:00,
2013-02-04 01:13:00,26.3,22.1,29.64,WNW,292,0.9,0.9,84,0.00,,,0.00,Weather8,2013-02-04 06:13:00,
2013-02-04 01:18:00,26.3,22.1,29.64,WNW,292,0.9,0.9,84,0.00,,,0.00,Weather8,2013-02-04 06:18:00,
2013-02-04 01:23:00,26.3,22.1,29.64,WNW,292,0.9,0.9,84,0.00,,,0.00,Weather8,2013-02-04 06:23:00,
2013-02-04 01:28:00,26.3,22.1,29.64,WNW,292,0.9,0.9,84,0.00,,,0.00,Weather8,2013-02-04 06:28:00,
2013-02-04 01:33:00,26.6,21.0,29.64,West,270,6.0,6.0,79,0.00,,,0.00,Weather8,2013-02-04 06:33:00,
2013-02-04 01:38:00,26.6,21.0,29.64,West,270,6.0,6.0,79,0.00,,,0.00,Weather8,2013-02-04 06:38:00,
2013-02-04 01:43:00,26.6,21.0,29.64,West,270,6.0,6.0,79,0.00,,,0.00,Weather8,2013-02-04 06:43:00,
2013-02-04 01:48:00,26.6,21.0,29.64,West,270,6.0,6.0,79,0.00,,,0.00,Weather8,2013-02-04 06:48:00,
2013-02-04 01:53:00,26.6,21.0,29.64,West,270,6.0,6.0,79,0.00,,,0.00,Weather8,2013-02-04 06:53:00,
2013-02-04 01:58:00,26.6,21.0,29.64,West,270,6.0,6.0,79,0.00,,,0.00,Weather8,2013-02-04 06:58:00,
2013-02-04 02:03:00,26.8,19.0,29.65,NW,315,2.9,6.0,72,0.00,,,0.00,Weather8,2013-02-04 07:03:00,
2013-02-04 02:08:00,26.8,19.0,29.65,NW,315,2.9,6.0,72,0.00,,,0.00,Weather8,2013-02-04 07:08:00,
2013-02-04 02:13:00,26.8,19.0,29.65,NW,315,2.9,2.9,72,0.00,,,0.00,Weather8,2013-02-04 07:13:00,
2013-02-04 02:18:00,26.8,19.0,29.65,NW,315,2.9,2.9,72,0.00,,,0.00,Weather8,2013-02-04 07:18:00,
2013-02-04 02:23:00,26.8,19.0,29.65,NW,315,2.9,2.9,72,0.00,,,0.00,Weather8,2013-02-04 07:23:00,
2013-02-04 02:25:00,26.8,19.0,29.65,NW,315,2.9,2.9,72,0.00,,,0.00,Weather8,2013-02-04 07:25:00,
2013-02-04 02:30:00,26.8,19.0,29.65,NW,315,2.9,2.9,72,0.00,,,0.00,Weather8,2013-02-04 07:30:00,
2013-02-04 02:35:00,25.9,15.0,29.66,West,270,4.7,4.7,63,0.00,,,0.00,Weather8,2013-02-04 07:35:00,
2013-02-04 02:40:00,25.9,15.0,29.66,West,270,4.7,4.7,63,0.00,,,0.00,Weather8,2013-02-04 07:40:00,
2013-02-04 02:45:00,25.9,15.0,29.66,West,270,4.7,4.7,63,0.00,,,0.00,Weather8,2013-02-04 07:45:00,
2013-02-04 02:50:00,25.9,15.0,29.66,West,270,4.7,4.7,63,0.00,,,0.00,Weather8,2013-02-04 07:50:00,
2013-02-04 02:55:00,25.9,15.0,29.66,West,270,4.7,4.7,63,0.00,,,0.00,Weather8,2013-02-04 07:55:00,
2013-02-04 03:00:00,25.9,15.0,29.66,West,270,4.7,4.7,63,0.00,,,0.00,Weather8,2013-02-04 08:00:00,
2013-02-04 03:05:00,25.0,13.8,29.67,North,0,2.7,4.7,62,0.00,,,0.00,Weather8,2013-02-04 08:05:00,
2013-02-04 03:10:00,25.0,13.8,29.67,North,0,2.7,4.7,62,0.00,,,0.00,Weather8,2013-02-04 08:10:00,
2013-02-04 03:15:00,25.0,13.8,29.67,North,0,2.7,2.7,62,0.00,,,0.00,Weather8,2013-02-04 08:15:00,
2013-02-04 03:20:00,25.0,13.8,29.67,North,0,2.7,2.7,62,0.00,,,0.00,Weather8,2013-02-04 08:20:00,
2013-02-04 03:25:00,25.0,13.8,29.67,North,0,2.7,2.7,62,0.00,,,0.00,Weather8,2013-02-04 08:25:00,
2013-02-04 03:30:00,25.0,13.8,29.67,North,0,2.7,2.7,62,0.00,,,0.00,Weather8,2013-02-04 08:30:00,
2013-02-04 03:35:00,24.3,13.2,29.67,NNW,337,3.8,3.8,62,0.00,,,0.00,Weather8,2013-02-04 08:35:00,
2013-02-04 03:40:00,24.3,13.2,29.67,NNW,337,3.8,3.8,62,0.00,,,0.00,Weather8,2013-02-04 08:40:00,
2013-02-04 03:45:00,24.3,13.2,29.67,NNW,337,3.8,3.8,62,0.00,,,0.00,Weather8,2013-02-04 08:45:00,
2013-02-04 03:50:00,24.3,13.2,29.67,NNW,337,3.8,3.8,62,0.00,,,0.00,Weather8,2013-02-04 08:50:00,
2013-02-04 03:55:00,24.3,13.2,29.67,NNW,337,3.8,3.8,62,0.00,,,0.00,Weather8,2013-02-04 08:55:00,
2013-02-04 04:00:00,24.3,13.2,29.67,NNW,337,3.8,3.8,62,0.00,,,0.00,Weather8,2013-02-04 09:00:00,
2013-02-04 04:05:00,23.9,12.8,29.69,NNW,337,3.8,3.8,62,0.00,,,0.00,Weather8,2013-02-04 09:05:00,
2013-02-04 04:10:00,23.9,12.8,29.69,NNW,337,3.8,3.8,62,0.00,,,0.00,Weather8,2013-02-04 09:10:00,
2013-02-04 04:15:00,23.9,12.8,29.69,NNW,337,3.8,3.8,62,0.00,,,0.00,Weather8,2013-02-04 09:15:00,
2013-02-04 04:20:00,23.9,12.8,29.69,NNW,337,3.8,3.8,62,0.00,,,0.00,Weather8,2013-02-04 09:20:00,
2013-02-04 04:25:00,23.9,12.8,29.69,NNW,337,3.8,3.8,62,0.00,,,0.00,Weather8,2013-02-04 09:25:00,
2013-02-04 04:30:00,23.9,12.8,29.69,NNW,337,3.8,3.8,62,0.00,,,0.00,Weather8,2013-02-04 09:30:00,
2013-02-04 04:35:00,23.4,12.6,29.71,North,0,2.5,3.8,63,0.00,,,0.00,Weather8,2013-02-04 09:35:00,
2013-02-04 04:40:00,23.4,12.6,29.71,North,0,2.5,3.8,63,0.00,,,0.00,Weather8,2013-02-04 09:40:00,
2013-02-04 04:45:00,23.4,12.6,29.71,North,0,2.5,2.5,63,0.00,,,0.00,Weather8,2013-02-04 09:45:00,
2013-02-04 04:50:00,23.4,12.6,29.71,North,0,2.5,2.5,63,0.00,,,0.00,Weather8,2013-02-04 09:50:00,
2013-02-04 04:55:00,23.4,12.6,29.71,North,0,2.5,2.5,63,0.00,,,0.00,Weather8,2013-02-04 09:55:00,
2013-02-04 05:00:00,23.4,12.6,29.71,North,0,2.5,2.5,63,0.00,,,0.00,Weather8,2013-02-04 10:00:00,
2013-02-04 05:05:00,23.2,12.4,29.71,NNW,337,1.1,2.5,63,0.00,,,0.00,Weather8,2013-02-04 10:05:00,
2013-02-04 05:10:00,23.2,12.4,29.71,NNW,337,1.1,2.5,63,0.00,,,0.00,Weather8,2013-02-04 10:10:00,
2013-02-04 05:15:00,23.2,12.4,29.71,NNW,337,1.1,1.1,63,0.00,,,0.00,Weather8,2013-02-04 10:15:00,
2013-02-04 05:20:00,23.2,12.4,29.71,NNW,337,1.1,1.1,63,0.00,,,0.00,Weather8,2013-02-04 10:20:00,
2013-02-04 05:25:00,23.2,12.4,29.71,NNW,337,1.1,1.1,63,0.00,,,0.00,Weather8,2013-02-04 10:25:00,
2013-02-04 05:30:00,23.2,12.4,29.71,NNW,337,1.1,1.1,63,0.00,,,0.00,Weather8,2013-02-04 10:30:00,
2013-02-04 05:35:00,22.7,12.2,29.73,North,0,2.0,2.0,64,0.00,,,0.00,Weather8,2013-02-04 10:35:00,
2013-02-04 05:40:00,22.7,12.2,29.73,North,0,2.0,2.0,64,0.00,,,0.00,Weather8,2013-02-04 10:40:00,
2013-02-04 05:45:00,22.7,12.2,29.73,North,0,2.0,2.0,64,0.00,,,0.00,Weather8,2013-02-04 10:45:00,
2013-02-04 05:50:00,22.7,12.2,29.73,North,0,2.0,2.0,64,0.00,,,0.00,Weather8,2013-02-04 10:50:00,
2013-02-04 05:55:00,22.7,12.2,29.73,North,0,2.0,2.0,64,0.00,,,0.00,Weather8,2013-02-04 10:55:00,
2013-02-04 06:00:00,22.7,12.2,29.73,North,0,2.0,2.0,64,0.00,,,0.00,Weather8,2013-02-04 11:00:00,
2013-02-04 06:05:00,22.5,12.4,29.74,NNW,337,4.3,4.3,65,0.00,,,0.00,Weather8,2013-02-04 11:05:00,
2013-02-04 06:10:00,22.5,12.4,29.74,NNW,337,4.3,4.3,65,0.00,,,0.00,Weather8,2013-02-04 11:10:00,
2013-02-04 06:15:00,22.5,12.4,29.74,NNW,337,4.3,4.3,65,0.00,,,0.00,Weather8,2013-02-04 11:15:00,
2013-02-04 06:20:00,22.5,12.4,29.74,NNW,337,4.3,4.3,65,0.00,,,0.00,Weather8,2013-02-04 11:20:00,
2013-02-04 06:25:00,22.5,12.4,29.74,NNW,337,4.3,4.3,65,0.00,,,0.00,Weather8,2013-02-04 11:25:00,
2013-02-04 06:30:00,22.5,12.4,29.74,NNW,337,4.3,4.3,65,0.00,,,0.00,Weather8,2013-02-04 11:30:00,
2013-02-04 06:35:00,22.5,12.4,29.76,NNW,337,2.5,4.3,65,0.00,,,0.00,Weather8,2013-02-04 11:35:00,
2013-02-04 06:40:00,22.5,12.4,29.76,NNW,337,2.5,4.3,65,0.00,,,0.00,Weather8,2013-02-04 11:40:00,
2013-02-04 06:45:00,22.5,12.4,29.76,NNW,337,2.5,2.5,65,0.00,,,0.00,Weather8,2013-02-04 11:45:00,
2013-02-04 06:50:00,22.5,12.4,29.76,NNW,337,2.5,2.5,65,0.00,,,0.00,Weather8,2013-02-04 11:50:00,
2013-02-04 06:55:00,22.5,12.4,29.76,NNW,337,2.5,2.5,65,0.00,,,0.00,Weather8,2013-02-04 11:55:00,
2013-02-04 07:00:00,22.5,12.4,29.76,NNW,337,2.5,2.5,65,0.00,,,0.00,Weather8,2013-02-04 12:00:00,
2013-02-04 07:05:00,22.0,12.2,29.76,NW,315,0.9,2.5,66,0.00,,,0.00,Weather8,2013-02-04 12:05:00,
2013-02-04 07:10:00,22.0,12.2,29.76,NW,315,0.9,2.5,66,0.00,,,0.00,Weather8,2013-02-04 12:10:00,
2013-02-04 07:15:00,22.0,12.2,29.76,NW,315,0.9,0.9,66,0.00,,,0.00,Weather8,2013-02-04 12:15:00,
2013-02-04 07:20:00,22.0,12.2,29.76,NW,315,0.9,0.9,66,0.00,,,0.00,Weather8,2013-02-04 12:20:00,
2013-02-04 07:25:00,22.0,12.2,29.76,NW,315,0.9,0.9,66,0.00,,,0.00,Weather8,2013-02-04 12:25:00,
2013-02-04 07:30:00,22.0,12.2,29.76,NW,315,0.9,0.9,66,0.00,,,0.00,Weather8,2013-02-04 12:30:00,
2013-02-04 07:35:00,21.4,12.4,29.77,NNW,337,2.0,2.0,68,0.00,,,0.00,Weather8,2013-02-04 12:35:00,
2013-02-04 07:40:00,21.4,12.4,29.77,NNW,337,2.0,2.0,68,0.00,,,0.00,Weather8,2013-02-04 12:40:00,
2013-02-04 07:45:00,21.4,12.4,29.77,NNW,337,2.0,2.0,68,0.00,,,0.00,Weather8,2013-02-04 12:45:00,
2013-02-04 07:50:00,21.4,12.4,29.77,NNW,337,2.0,2.0,68,0.00,,,0.00,Weather8,2013-02-04 12:50:00,
2013-02-04 07:55:00,21.4,12.4,29.77,NNW,337,2.0,2.0,68,0.00,,,0.00,Weather8,2013-02-04 12:55:00,
2013-02-04 08:00:00,21.4,12.4,29.77,NNW,337,2.0,2.0,68,0.00,,,0.00,Weather8,2013-02-04 13:00:00,
2013-02-04 08:05:00,22.3,13.3,29.79,WSW,247,0.9,2.0,68,0.00,,,0.00,Weather8,2013-02-04 13:05:00,
2013-02-04 08:10:00,22.3,13.3,29.79,WSW,247,0.9,2.0,68,0.00,,,0.00,Weather8,2013-02-04 13:10:00,
2013-02-04 08:15:00,22.3,13.3,29.79,WSW,247,0.9,0.9,68,0.00,,,0.00,Weather8,2013-02-04 13:15:00,
2013-02-04 08:20:00,22.3,13.3,29.79,WSW,247,0.9,0.9,68,0.00,,,0.00,Weather8,2013-02-04 13:20:00,
2013-02-04 08:25:00,22.3,13.3,29.79,WSW,247,0.9,0.9,68,0.00,,,0.00,Weather8,2013-02-04 13:25:00,
2013-02-04 08:30:00,22.3,13.3,29.79,WSW,247,0.9,0.9,68,0.00,,,0.00,Weather8,2013-02-04 13:30:00,
2013-02-04 08:35:00,23.4,14.1,29.81,NNW,337,4.0,4.0,67,0.00,,,0.00,Weather8,2013-02-04 13:35:00,
2013-02-04 08:40:00,23.4,14.1,29.81,NNW,337,4.0,4.0,67,0.00,,,0.00,Weather8,2013-02-04 13:40:00,
2013-02-04 08:45:00,23.4,14.1,29.81,NNW,337,4.0,4.0,67,0.00,,,0.00,Weather8,2013-02-04 13:45:00,
2013-02-04 08:50:00,23.4,14.1,29.81,NNW,337,4.0,4.0,67,0.00,,,0.00,Weather8,2013-02-04 13:50:00,
2013-02-04 08:55:00,23.4,14.1,29.81,NNW,337,4.0,4.0,67,0.00,,,0.00,Weather8,2013-02-04 13:55:00,
2013-02-04 09:00:00,23.4,14.1,29.81,NNW,337,4.0,4.0,67,0.00,,,0.00,Weather8,2013-02-04 14:00:00,
2013-02-04 09:05:00,24.8,14.0,29.81,SW,225,5.4,5.4,63,0.00,,,0.00,Weather8,2013-02-04 14:05:00,
2013-02-04 09:10:00,24.8,14.0,29.81,SW,225,5.4,5.4,63,0.00,,,0.00,Weather8,2013-02-04 14:10:00,
2013-02-04 09:15:00,24.8,14.0,29.81,SW,225,5.4,5.4,63,0.00,,,0.00,Weather8,2013-02-04 14:15:00,
2013-02-04 09:20:00,24.8,14.0,29.81,SW,225,5.4,5.4,63,0.00,,,0.00,Weather8,2013-02-04 14:20:00,
2013-02-04 09:25:00,24.8,14.0,29.81,SW,225,5.4,5.4,63,0.00,,,0.00,Weather8,2013-02-04 14:25:00,
2013-02-04 09:30:00,24.8,14.0,29.81,SW,225,5.4,5.4,63,0.00,,,0.00,Weather8,2013-02-04 14:30:00,
2013-02-04 09:35:00,26.3,14.2,29.81,NNW,337,3.6,5.4,60,0.00,,,0.00,Weather8,2013-02-04 14:35:00,
2013-02-04 09:40:00,26.3,14.2,29.81,NNW,337,3.6,5.4,60,0.00,,,0.00,Weather8,2013-02-04 14:40:00,
2013-02-04 09:45:00,26.3,14.2,29.81,NNW,337,3.6,3.6,60,0.00,,,0.00,Weather8,2013-02-04 14:45:00,
2013-02-04 09:50:00,26.3,14.2,29.81,NNW,337,3.6,3.6,60,0.00,,,0.00,Weather8,2013-02-04 14:50:00,
2013-02-04 09:55:00,26.3,14.2,29.81,NNW,337,3.6,3.6,60,0.00,,,0.00,Weather8,2013-02-04 14:55:00,
2013-02-04 10:00:00,26.3,14.2,29.81,NNW,337,3.6,3.6,60,0.00,,,0.00,Weather8,2013-02-04 15:00:00,
2013-02-04 10:05:00,27.7,14.9,29.81,WNW,292,2.9,3.6,58,0.00,,,0.00,Weather8,2013-02-04 15:05:00,
2013-02-04 10:10:00,27.7,14.9,29.81,WNW,292,2.9,3.6,58,0.00,,,0.00,Weather8,2013-02-04 15:10:00,
2013-02-04 10:15:00,27.7,14.9,29.81,WNW,292,2.9,2.9,58,0.00,,,0.00,Weather8,2013-02-04 15:15:00,
2013-02-04 10:20:00,27.7,14.9,29.81,WNW,292,2.9,2.9,58,0.00,,,0.00,Weather8,2013-02-04 15:20:00,
2013-02-04 10:25:00,27.7,14.9,29.81,WNW,292,2.9,2.9,58,0.00,,,0.00,Weather8,2013-02-04 15:25:00,
2013-02-04 10:30:00,27.7,14.9,29.81,WNW,292,2.9,2.9,58,0.00,,,0.00,Weather8,2013-02-04 15:30:00,
2013-02-04 10:35:00,28.8,14.2,29.80,NNW,337,8.1,8.1,54,0.00,,,0.00,Weather8,2013-02-04 15:35:00,
2013-02-04 10:40:00,28.8,14.2,29.80,NNW,337,8.1,8.1,54,0.00,,,0.00,Weather8,2013-02-04 15:40:00,
2013-02-04 10:45:00,28.8,14.2,29.80,NNW,337,8.1,8.1,54,0.00,,,0.00,Weather8,2013-02-04 15:45:00,
2013-02-04 10:50:00,28.8,14.2,29.80,NNW,337,8.1,8.1,54,0.00,,,0.00,Weather8,2013-02-04 15:50:00,
2013-02-04 10:55:00,28.8,14.2,29.80,NNW,337,8.1,8.1,54,0.00,,,0.00,Weather8,2013-02-04 15:55:00,
2013-02-04 11:00:00,28.8,14.2,29.80,NNW,337,8.1,8.1,54,0.00,,,0.00,Weather8,2013-02-04 16:00:00,
2013-02-04 11:05:00,29.5,15.3,29.79,SSE,157,2.2,8.1,55,0.00,,,0.00,Weather8,2013-02-04 16:05:00,
2013-02-04 11:10:00,29.5,15.3,29.79,SSE,157,2.2,8.1,55,0.00,,,0.00,Weather8,2013-02-04 16:10:00,
2013-02-04 11:15:00,29.5,15.3,29.79,SSE,157,2.2,2.2,55,0.00,,,0.00,Weather8,2013-02-04 16:15:00,
2013-02-04 11:20:00,29.5,15.3,29.79,SSE,157,2.2,2.2,55,0.00,,,0.00,Weather8,2013-02-04 16:20:00,
2013-02-04 11:25:00,29.5,15.3,29.79,SSE,157,2.2,2.2,55,0.00,,,0.00,Weather8,2013-02-04 16:25:00,
2013-02-04 11:30:00,29.5,15.3,29.79,SSE,157,2.2,2.2,55,0.00,,,0.00,Weather8,2013-02-04 16:30:00,
2013-02-04 11:35:00,31.3,15.7,29.79,North,0,3.1,3.1,52,0.00,,,0.00,Weather8,2013-02-04 16:35:00,
2013-02-04 11:40:00,31.3,15.7,29.79,North,0,3.1,3.1,52,0.00,,,0.00,Weather8,2013-02-04 16:40:00,
2013-02-04 11:45:00,31.3,15.7,29.79,North,0,3.1,3.1,52,0.00,,,0.00,Weather8,2013-02-04 16:45:00,
2013-02-04 11:50:00,31.3,15.7,29.79,North,0,3.1,3.1,52,0.00,,,0.00,Weather8,2013-02-04 16:50:00,
2013-02-04 11:55:00,31.3,15.7,29.79,North,0,3.1,3.1,52,0.00,,,0.00,Weather8,2013-02-04 16:55:00,
2013-02-04 12:00:00,31.3,15.7,29.79,North,0,3.1,3.1,52,0.00,,,0.00,Weather8,2013-02-04 17:00:00,
2013-02-04 12:05:00,32.0,14.5,29.78,WSW,247,6.5,6.5,48,0.00,,,0.00,Weather8,2013-02-04 17:05:00,
2013-02-04 12:10:00,32.0,14.5,29.78,WSW,247,6.5,6.5,48,0.00,,,0.00,Weather8,2013-02-04 17:10:00,
2013-02-04 12:15:00,32.0,14.5,29.78,WSW,247,6.5,6.5,48,0.00,,,0.00,Weather8,2013-02-04 17:15:00,
2013-02-04 12:20:00,32.0,14.5,29.78,WSW,247,6.5,6.5,48,0.00,,,0.00,Weather8,2013-02-04 17:20:00,
2013-02-04 12:25:00,32.0,14.5,29.78,WSW,247,6.5,6.5,48,0.00,,,0.00,Weather8,2013-02-04 17:25:00,
2013-02-04 12:30:00,32.0,14.5,29.78,WSW,247,6.5,6.5,48,0.00,,,0.00,Weather8,2013-02-04 17:30:00,
2013-02-04 12:35:00,32.8,14.1,29.76,NNW,337,3.4,6.5,46,0.00,,,0.00,Weather8,2013-02-04 17:35:00,
2013-02-04 12:40:00,32.8,14.1,29.76,NNW,337,3.4,6.5,46,0.00,,,0.00,Weather8,2013-02-04 17:40:00,
2013-02-04 12:45:00,32.8,14.1,29.76,NNW,337,3.4,3.4,46,0.00,,,0.00,Weather8,2013-02-04 17:45:00,
2013-02-04 12:50:00,32.8,14.1,29.76,NNW,337,3.4,3.4,46,0.00,,,0.00,Weather8,2013-02-04 17:50:00,
2013-02-04 12:55:00,32.8,14.1,29.76,NNW,337,3.4,3.4,46,0.00,,,0.00,Weather8,2013-02-04 17:55:00,
2013-02-04 13:00:00,32.8,14.1,29.76,NNW,337,3.4,3.4,46,0.00,,,0.00,Weather8,2013-02-04 18:00:00,
2013-02-04 13:05:00,32.9,13.2,29.75,NNW,337,5.6,5.6,44,0.00,,,0.00,Weather8,2013-02-04 18:05:00,
2013-02-04 13:10:00,32.9,13.2,29.75,NNW,337,5.6,5.6,44,0.00,,,0.00,Weather8,2013-02-04 18:10:00,
2013-02-04 13:15:00,32.9,13.2,29.75,NNW,337,5.6,5.6,44,0.00,,,0.00,Weather8,2013-02-04 18:15:00,
2013-02-04 13:20:00,32.9,13.2,29.75,NNW,337,5.6,5.6,44,0.00,,,0.00,Weather8,2013-02-04 18:20:00,
2013-02-04 13:25:00,32.9,13.2,29.75,NNW,337,5.6,5.6,44,0.00,,,0.00,Weather8,2013-02-04 18:25:00,
2013-02-04 13:30:00,32.9,13.2,29.75,NNW,337,5.6,5.6,44,0.00,,,0.00,Weather8,2013-02-04 18:30:00,
2013-02-04 13:35:00,33.7,14.0,29.74,South,180,4.7,5.6,44,0.00,,,0.00,Weather8,2013-02-04 18:35:00,
2013-02-04 13:40:00,33.7,14.0,29.74,South,180,4.7,5.6,44,0.00,,,0.00,Weather8,2013-02-04 18:40:00,
2013-02-04 13:45:00,33.7,14.0,29.74,South,180,4.7,4.7,44,0.00,,,0.00,Weather8,2013-02-04 18:45:00,
2013-02-04 13:50:00,33.7,14.0,29.74,South,180,4.7,4.7,44,0.00,,,0.00,Weather8,2013-02-04 18:50:00,
2013-02-04 13:55:00,33.7,14.0,29.74,South,180,4.7,4.7,44,0.00,,,0.00,Weather8,2013-02-04 18:55:00,
2013-02-04 14:00:00,33.7,14.0,29.74,South,180,4.7,4.7,44,0.00,,,0.00,Weather8,2013-02-04 19:00:00,
2013-02-04 14:05:00,32.8,13.2,29.74,SSE,157,3.8,4.7,44,0.00,,,0.00,Weather8,2013-02-04 19:05:00,
2013-02-04 14:10:00,32.8,13.2,29.74,SSE,157,3.8,4.7,44,0.00,,,0.00,Weather8,2013-02-04 19:10:00,
2013-02-04 14:15:00,32.8,13.2,29.74,SSE,157,3.8,3.8,44,0.00,,,0.00,Weather8,2013-02-04 19:15:00,
2013-02-04 14:20:00,32.8,13.2,29.74,SSE,157,3.8,3.8,44,0.00,,,0.00,Weather8,2013-02-04 19:20:00,
2013-02-04 14:25:00,32.8,13.2,29.74,SSE,157,3.8,3.8,44,0.00,,,0.00,Weather8,2013-02-04 19:25:00,
2013-02-04 14:30:00,32.8,13.2,29.74,SSE,157,3.8,3.8,44,0.00,,,0.00,Weather8,2013-02-04 19:30:00,
2013-02-04 14:35:00,32.0,12.4,29.73,NW,315,9.2,9.2,44,0.00,,,0.00,Weather8,2013-02-04 19:35:00,
2013-02-04 14:40:00,32.0,12.4,29.73,NW,315,9.2,9.2,44,0.00,,,0.00,Weather8,2013-02-04 19:40:00,
2013-02-04 14:45:00,32.0,12.4,29.73,NW,315,9.2,9.2,44,0.00,,,0.00,Weather8,2013-02-04 19:45:00,
2013-02-04 14:50:00,32.0,12.4,29.73,NW,315,9.2,9.2,44,0.00,,,0.00,Weather8,2013-02-04 19:50:00,
2013-02-04 14:55:00,32.0,12.4,29.73,NW,315,9.2,9.2,44,0.00,,,0.00,Weather8,2013-02-04 19:55:00,
2013-02-04 15:00:00,32.0,12.4,29.73,NW,315,9.2,9.2,44,0.00,,,0.00,Weather8,2013-02-04 20:00:00,
2013-02-04 15:05:00,31.5,13.0,29.73,NW,315,1.3,9.2,46,0.00,,,0.00,Weather8,2013-02-04 20:05:00,
2013-02-04 15:10:00,31.5,13.0,29.73,NW,315,1.3,9.2,46,0.00,,,0.00,Weather8,2013-02-04 20:10:00,
2013-02-04 15:15:00,31.5,13.0,29.73,NW,315,1.3,1.3,46,0.00,,,0.00,Weather8,2013-02-04 20:15:00,
2013-02-04 15:20:00,31.5,13.0,29.73,NW,315,1.3,1.3,46,0.00,,,0.00,Weather8,2013-02-04 20:20:00,
2013-02-04 15:25:00,31.5,13.0,29.73,NW,315,1.3,1.3,46,0.00,,,0.00,Weather8,2013-02-04 20:25:00,
2013-02-04 15:30:00,31.5,13.0,29.73,NW,315,1.3,1.3,46,0.00,,,0.00,Weather8,2013-02-04 20:30:00,
2013-02-04 15:35:00,31.1,12.7,29.74,WNW,292,4.0,4.0,46,0.00,,,0.00,Weather8,2013-02-04 20:35:00,
2013-02-04 15:40:00,31.1,12.7,29.74,WNW,292,4.0,4.0,46,0.00,,,0.00,Weather8,2013-02-04 20:40:00,
2013-02-04 15:45:00,31.1,12.7,29.74,WNW,292,4.0,4.0,46,0.00,,,0.00,Weather8,2013-02-04 20:45:00,
2013-02-04 15:50:00,31.1,12.7,29.74,WNW,292,4.0,4.0,46,0.00,,,0.00,Weather8,2013-02-04 20:50:00,
2013-02-04 15:55:00,31.1,12.7,29.74,WNW,292,4.0,4.0,46,0.00,,,0.00,Weather8,2013-02-04 20:55:00,
2013-02-04 16:00:00,31.1,12.7,29.74,WNW,292,4.0,4.0,46,0.00,,,0.00,Weather8,2013-02-04 21:00:00,
2013-02-04 16:05:00,30.8,13.3,29.74,WNW,292,1.6,4.0,48,0.00,,,0.00,Weather8,2013-02-04 21:05:00,
2013-02-04 16:10:00,30.8,13.3,29.74,WNW,292,1.6,4.0,48,0.00,,,0.00,Weather8,2013-02-04 21:10:00,
2013-02-04 16:15:00,30.8,13.3,29.74,WNW,292,1.6,1.6,48,0.00,,,0.00,Weather8,2013-02-04 21:15:00,
2013-02-04 16:20:00,30.8,13.3,29.74,WNW,292,1.6,1.6,48,0.00,,,0.00,Weather8,2013-02-04 21:20:00,
2013-02-04 16:25:00,30.8,13.3,29.74,WNW,292,1.6,1.6,48,0.00,,,0.00,Weather8,2013-02-04 21:25:00,
2013-02-04 16:30:00,30.8,13.3,29.74,WNW,292,1.6,1.6,48,0.00,,,0.00,Weather8,2013-02-04 21:30:00,
2013-02-04 16:35:00,30.6,13.7,29.75,NNW,337,4.0,4.0,49,0.00,,,0.00,Weather8,2013-02-04 21:35:00,
2013-02-04 16:40:00,30.6,13.7,29.75,NNW,337,4.0,4.0,49,0.00,,,0.00,Weather8,2013-02-04 21:40:00,
2013-02-04 16:45:00,30.6,13.7,29.75,NNW,337,4.0,4.0,49,0.00,,,0.00,Weather8,2013-02-04 21:45:00,
2013-02-04 16:50:00,30.6,13.7,29.75,NNW,337,4.0,4.0,49,0.00,,,0.00,Weather8,2013-02-04 21:50:00,
2013-02-04 16:55:00,30.6,13.7,29.75,NNW,337,4.0,4.0,49,0.00,,,0.00,Weather8,2013-02-04 21:55:00,
2013-02-04 17:00:00,30.6,13.7,29.75,NNW,337,4.0,4.0,49,0.00,,,0.00,Weather8,2013-02-04 22:00:00,
2013-02-04 17:05:00,30.2,13.9,29.76,WNW,292,1.1,4.0,50,0.00,,,0.00,Weather8,2013-02-04 22:05:00,
2013-02-04 17:10:00,30.2,13.9,29.76,WNW,292,1.1,4.0,50,0.00,,,0.00,Weather8,2013-02-04 22:10:00,
2013-02-04 17:15:00,30.2,13.9,29.76,WNW,292,1.1,1.1,50,0.00,,,0.00,Weather8,2013-02-04 22:15:00,
2013-02-04 17:20:00,30.2,13.9,29.76,WNW,292,1.1,1.1,50,0.00,,,0.00,Weather8,2013-02-04 22:20:00,
2013-02-04 17:25:00,30.2,13.9,29.76,WNW,292,1.1,1.1,50,0.00,,,0.00,Weather8,2013-02-04 22:25:00,
2013-02-04 17:30:00,30.2,13.9,29.76,WNW,292,1.1,1.1,50,0.00,,,0.00,Weather8,2013-02-04 22:30:00,
2013-02-04 17:35:00,29.7,14.2,29.77,WNW,292,3.6,3.6,52,0.00,,,0.00,Weather8,2013-02-04 22:35:00,
2013-02-04 17:40:00,29.7,14.2,29.77,WNW,292,3.6,3.6,52,0.00,,,0.00,Weather8,2013-02-04 22:40:00,
2013-02-04 17:45:00,29.7,14.2,29.77,WNW,292,3.6,3.6,52,0.00,,,0.00,Weather8,2013-02-04 22:45:00,
2013-02-04 17:50:00,29.7,14.2,29.77,WNW,292,3.6,3.6,52,0.00,,,0.00,Weather8,2013-02-04 22:50:00,
2013-02-04 17:55:00,29.7,14.2,29.77,WNW,292,3.6,3.6,52,0.00,,,0.00,Weather8,2013-02-04 22:55:00,
2013-02-04 18:00:00,29.7,14.2,29.77,WNW,292,3.6,3.6,52,0.00,,,0.00,Weather8,2013-02-04 23:00:00,
2013-02-04 18:05:00,29.2,13.7,29.77,WSW,247,0.4,3.6,52,0.00,,,0.00,Weather8,2013-02-04 23:05:00,
2013-02-04 18:10:00,29.2,13.7,29.77,WSW,247,0.4,3.6,52,0.00,,,0.00,Weather8,2013-02-04 23:10:00,
2013-02-04 18:15:00,29.2,13.7,29.77,WSW,247,0.4,0.4,52,0.00,,,0.00,Weather8,2013-02-04 23:15:00,
2013-02-04 18:20:00,29.2,13.7,29.77,WSW,247,0.4,0.4,52,0.00,,,0.00,Weather8,2013-02-04 23:20:00,
2013-02-04 18:25:00,29.2,13.7,29.77,WSW,247,0.4,0.4,52,0.00,,,0.00,Weather8,2013-02-04 23:25:00,
2013-02-04 18:30:00,29.2,13.7,29.77,WSW,247,0.4,0.4,52,0.00,,,0.00,Weather8,2013-02-04 23:30:00,
2013-02-04 18:35:00,28.6,14.0,29.78,West,270,0.0,0.4,54,0.00,,,0.00,Weather8,2013-02-04 23:35:00,
2013-02-04 18:40:00,28.6,14.0,29.78,West,270,0.0,0.4,54,0.00,,,0.00,Weather8,2013-02-04 23:40:00,
2013-02-04 18:45:00,28.6,14.0,29.78,West,270,0.0,0.0,54,0.00,,,0.00,Weather8,2013-02-04 23:45:00,
2013-02-04 18:50:00,28.6,14.0,29.78,West,270,0.0,0.0,54,0.00,,,0.00,Weather8,2013-02-04 23:50:00,
2013-02-04 18:55:00,28.6,14.0,29.78,West,270,0.0,0.0,54,0.00,,,0.00,Weather8,2013-02-04 23:55:00,
2013-02-04 19:00:00,28.6,14.0,29.78,West,270,0.0,0.0,54,0.00,,,0.00,Weather8,2013-02-05 00:00:00,
2013-02-04 19:05:00,28.1,14.0,29.78,WNW,292,0.0,0.0,55,0.00,,,0.00,Weather8,2013-02-05 00:05:00,
2013-02-04 19:10:00,28.1,14.0,29.78,WNW,292,0.0,0.0,55,0.00,,,0.00,Weather8,2013-02-05 00:10:00,
2013-02-04 19:15:00,28.1,14.0,29.78,WNW,292,0.0,0.0,55,0.00,,,0.00,Weather8,2013-02-05 00:15:00,
2013-02-04 19:20:00,28.1,14.0,29.78,WNW,292,0.0,0.0,55,0.00,,,0.00,Weather8,2013-02-05 00:20:00,
2013-02-04 19:25:00,28.1,14.0,29.78,WNW,292,0.0,0.0,55,0.00,,,0.00,Weather8,2013-02-05 00:25:00,
2013-02-04 19:30:00,27.4,14.0,29.79,SW,225,1.1,1.1,57,0.00,,,0.00,Weather8,2013-02-05 00:30:00,
2013-02-04 19:35:00,27.4,14.0,29.79,SW,225,1.1,1.1,57,0.00,,,0.00,Weather8,2013-02-05 00:35:00,
2013-02-04 19:40:00,27.4,14.0,29.79,SW,225,1.1,1.1,57,0.00,,,0.00,Weather8,2013-02-05 00:40:00,
2013-02-04 19:45:00,27.4,14.0,29.79,SW,225,1.1,1.1,57,0.00,,,0.00,Weather8,2013-02-05 00:45:00,
2013-02-04 19:50:00,27.4,14.0,29.79,SW,225,1.1,1.1,57,0.00,,,0.00,Weather8,2013-02-05 00:50:00,
2013-02-04 19:56:00,27.4,14.0,29.79,SW,225,1.1,1.1,57,0.00,,,0.00,Weather8,2013-02-05 00:56:00,
2013-02-04 20:01:00,26.8,14.0,29.78,SSW,202,0.7,1.1,58,0.00,,,0.00,Weather8,2013-02-05 01:01:00,
2013-02-04 20:06:00,26.8,14.0,29.78,SSW,202,0.7,1.1,58,0.00,,,0.00,Weather8,2013-02-05 01:06:00,
2013-02-04 20:11:00,26.8,14.0,29.78,SSW,202,0.7,1.1,58,0.00,,,0.00,Weather8,2013-02-05 01:11:00,
2013-02-04 20:16:00,26.8,14.0,29.78,SSW,202,0.7,0.7,58,0.00,,,0.00,Weather8,2013-02-05 01:16:00,
2013-02-04 20:21:00,26.8,14.0,29.78,SSW,202,0.7,0.7,58,0.00,,,0.00,Weather8,2013-02-05 01:21:00,
2013-02-04 20:26:00,26.8,14.0,29.78,SSW,202,0.7,0.7,58,0.00,,,0.00,Weather8,2013-02-05 01:26:00,
2013-02-04 20:31:00,26.3,14.2,29.78,SSW,202,0.4,0.7,60,0.00,,,0.00,Weather8,2013-02-05 01:31:00,
2013-02-04 20:36:00,26.3,14.2,29.78,SSW,202,0.4,0.7,60,0.00,,,0.00,Weather8,2013-02-05 01:36:00,
2013-02-04 20:41:00,26.3,14.2,29.78,SSW,202,0.4,0.7,60,0.00,,,0.00,Weather8,2013-02-05 01:41:00,
2013-02-04 20:46:00,26.3,14.2,29.78,SSW,202,0.4,0.4,60,0.00,,,0.00,Weather8,2013-02-05 01:46:00,
2013-02-04 20:51:00,26.3,14.2,29.78,SSW,202,0.4,0.4,60,0.00,,,0.00,Weather8,2013-02-05 01:51:00,
2013-02-04 20:56:00,26.3,14.2,29.78,SSW,202,0.4,0.4,60,0.00,,,0.00,Weather8,2013-02-05 01:56:00,
2013-02-04 21:01:00,25.9,14.0,29.78,SSE,157,0.0,0.4,60,0.00,,,0.00,Weather8,2013-02-05 02:01:00,
2013-02-04 21:06:00,25.9,14.0,29.78,SSE,157,0.0,0.4,60,0.00,,,0.00,Weather8,2013-02-05 02:06:00,
2013-02-04 21:11:00,25.9,14.0,29.78,SSE,157,0.0,0.4,60,0.00,,,0.00,Weather8,2013-02-05 02:11:00,
2013-02-04 21:16:00,25.9,14.0,29.78,SSE,157,0.0,0.0,60,0.00,,,0.00,Weather8,2013-02-05 02:16:00,
2013-02-04 21:21:00,25.9,14.0,29.78,SSE,157,0.0,0.0,60,0.00,,,0.00,Weather8,2013-02-05 02:21:00,
2013-02-04 21:26:00,25.9,14.0,29.78,SSE,157,0.0,0.0,60,0.00,,,0.00,Weather8,2013-02-05 02:26:00,
2013-02-04 21:31:00,26.1,14.5,29.78,SSE,157,0.0,0.0,61,0.00,,,0.00,Weather8,2013-02-05 02:31:00,
2013-02-04 21:36:00,26.1,14.5,29.78,SSE,157,0.0,0.0,61,0.00,,,0.00,Weather8,2013-02-05 02:36:00,
2013-02-04 21:41:00,26.1,14.5,29.78,SSE,157,0.0,0.0,61,0.00,,,0.00,Weather8,2013-02-05 02:41:00,
2013-02-04 21:46:00,26.1,14.5,29.78,SSE,157,0.0,0.0,61,0.00,,,0.00,Weather8,2013-02-05 02:46:00,
2013-02-04 21:51:00,26.1,14.5,29.78,SSE,157,0.0,0.0,61,0.00,,,0.00,Weather8,2013-02-05 02:51:00,
2013-02-04 21:56:00,26.1,14.5,29.78,SSE,157,0.0,0.0,61,0.00,,,0.00,Weather8,2013-02-05 02:56:00,
2013-02-04 22:01:00,26.6,15.7,29.77,SSW,202,0.7,0.7,63,0.00,,,0.00,Weather8,2013-02-05 03:01:00,
2013-02-04 22:06:00,26.6,15.7,29.77,SSW,202,0.7,0.7,63,0.00,,,0.00,Weather8,2013-02-05 03:06:00,
2013-02-04 22:11:00,26.6,15.7,29.77,SSW,202,0.7,0.7,63,0.00,,,0.00,Weather8,2013-02-05 03:11:00,
2013-02-04 22:16:00,26.6,15.7,29.77,SSW,202,0.7,0.7,63,0.00,,,0.00,Weather8,2013-02-05 03:16:00,
2013-02-04 22:21:00,26.6,15.7,29.77,SSW,202,0.7,0.7,63,0.00,,,0.00,Weather8,2013-02-05 03:21:00,
2013-02-04 22:26:00,26.6,15.7,29.77,SSW,202,0.7,0.7,63,0.00,,,0.00,Weather8,2013-02-05 03:26:00,
2013-02-04 22:31:00,27.2,16.2,29.78,SW,225,1.3,1.3,63,0.00,,,0.00,Weather8,2013-02-05 03:31:00,
2013-02-04 22:36:00,27.2,16.2,29.78,SW,225,1.3,1.3,63,0.00,,,0.00,Weather8,2013-02-05 03:36:00,
2013-02-04 22:41:00,27.2,16.2,29.78,SW,225,1.3,1.3,63,0.00,,,0.00,Weather8,2013-02-05 03:41:00,
2013-02-04 22:46:00,27.2,16.2,29.78,SW,225,1.3,1.3,63,0.00,,,0.00,Weather8,2013-02-05 03:46:00,
2013-02-04 22:51:00,27.2,16.2,29.78,SW,225,1.3,1.3,63,0.00,,,0.00,Weather8,2013-02-05 03:51:00,
2013-02-04 22:56:00,27.2,16.2,29.78,SW,225,1.3,1.3,63,0.00,,,0.00,Weather8,2013-02-05 03:56:00,
2013-02-04 23:01:00,27.7,17.1,29.77,North,0,0.0,1.3,64,0.00,,,0.00,Weather8,2013-02-05 04:01:00,
2013-02-04 23:06:00,27.7,17.1,29.77,North,0,0.0,1.3,64,0.00,,,0.00,Weather8,2013-02-05 04:06:00,
2013-02-04 23:11:00,27.7,17.1,29.77,North,0,0.0,1.3,64,0.00,,,0.00,Weather8,2013-02-05 04:11:00,
2013-02-04 23:16:00,27.7,17.1,29.77,North,0,0.0,0.0,64,0.00,,,0.00,Weather8,2013-02-05 04:16:00,
2013-02-04 23:21:00,27.7,17.1,29.77,North,0,0.0,0.0,64,0.00,,,0.00,Weather8,2013-02-05 04:21:00,
2013-02-04 23:26:00,27.7,17.1,29.77,North,0,0.0,0.0,64,0.00,,,0.00,Weather8,2013-02-05 04:26:00,
2013-02-04 23:31:00,27.9,18.7,29.77,South,180,0.7,0.7,68,0.00,,,0.00,Weather8,2013-02-05 04:31:00,
2013-02-04 23:36:00,27.9,18.7,29.77,South,180,0.7,0.7,68,0.00,,,0.00,Weather8,2013-02-05 04:36:00,
2013-02-04 23:41:00,27.9,18.7,29.77,South,180,0.7,0.7,68,0.00,,,0.00,Weather8,2013-02-05 04:41:00,
2013-02-04 23:46:00,27.9,18.7,29.77,South,180,0.7,0.7,68,0.00,,,0.00,Weather8,2013-02-05 04:46:00,
2013-02-04 23:51:00,27.9,18.7,29.77,South,180,0.7,0.7,68,0.00,,,0.00,Weather8,2013-02-05 04:51:00,
2013-02-04 23:56:00,27.9,18.7,29.77,South,180,0.7,0.7,68,0.00,,,0.00,Weather8,2013-02-05 04:56:00,